Вернуться в каталог

CZ-6A DEB

АктивенSSO
NORAD 54974·DEBRIS·🇨🇳 China

Запущен Nov 11, 2022 с Taiyuan Satellite Launch Center

Loading…

Ближайшие Пролёты (ближайшие 24 часа)

TLE

СвежийSource: Space-Track

Эпоха: Sep 14, 2026, 14:33 UTC

1 54974U 22151TP  26257.60631280  .00003937  00000-0  82497-3 0  9993
2 54974  98.6208 314.7020 0088567  46.4451 314.4058 14.57878125201982

Отслеживайте CZ-6A DEB в реальном времени с AllMySat

Download on the App Store